Dewpoint
40 40 37 37 37 36 36 38 41 40 39 40 40 40 41 40 38 39 39 39 39 39
42 40 39 38 37 36 39 37 39 40 38 35 36 36 37 37 38 37 37 37 37 37
39 38 37 37 37 37 38 39 37 35 34 34 36 38 38 37 36 36 35 32 31 29
38 36 36 36 37 37 38 35 34 34 34 35 37 38 38 36 34 30 30 29 28 27
36 35 35 36 37 37 37 37 36 37 38 37 37 34 32 31 29 27 25 26 26 25
36 36 36 37 37 38 38 38 39 37 36 36 34 33 29 26 25 26 26 25 24 23
36 38 38 38 36 35 34 33 32 30 30 30 27 25 24 23 24 24 23 24 25 23
33 31 31 30 30 29 28 24 23 23 23 24 22 18 26 22 23 24 24 24 23 24
30 28 27 27 26 24 22 21 22 22 22 23 18 29 28 28 24 23 21 21 21 21
29 25 24 21 19 20 22 23 23 23 23 24 24 25 25 25 22 21 21 21 21 18
26 23 20 19 19 21 22 22 22 23 23 22 19 24 23 23 22 23 23 21 21 19
25 22 19 19 20 21 21 22 22 22 22 21 21 24 22 22 24 23 22 20 20 21
25 22 19 21 22 23 22 21 22 24 24 24 24 23 22 22 23 25 24 24 23 25
24 20 21 22 22 23 22 24 28 30 27 25 24 22 21 21 24 25 23 22 23 25
Lifted_Index
5 5 6 7 7 7 7 7 7 7 6 6 6 7 7 7 7 8 8 8 8 7
5 6 7 7 8 7 7 7 7 7 7 7 7 7 7 7 7 7 7 7 6 6
6 7 8 8 8 7 7 6 6 7 7 7 7 6 6 5 5 5 5 5 5 5
7 7 8 8 7 7 7 6 6 6 6 6 6 5 4 4 4 4 4 5 5 5
7 7 7 7 7 7 6 6 6 6 6 5 5 4 4 4 4 4 5 5 5 6
6 6 6 6 6 7 7 6 6 5 5 5 4 4 5 5 5 5 6 6 6 7
7 7 7 7 7 7 7 7 6 6 5 5 6 6 6 6 6 6 7 7 7 8
7 7 7 7 7 7 7 7 7 7 7 7 7 7 8 8 8 8 8 8 8 8
7 8 8 8 7 7 7 7 7 7 7 8 8 8 9 9 9 9 9 9 9 9
7 7 7 7 7 7 7 7 8 8 8 8 8 9 10 10 10 10 10 10 10 10
7 7 7 7 7 7 7 8 8 8 8 8 8 9 9 10 10 10 10 10 10 11
6 6 7 7 7 7 7 8 8 8 8 8 8 8 9 9 9 9 9 9 10 11
6 6 6 6 7 7 7 7 7 7 7 7 8 9 9 10 9 9 9 9 9 10
5 6 6 6 7 7 7 7 7 7 7 7 8 9 10 10 10 9 9 9 9 9